Brno, Czech Republic

6:27 AM CEST on May 25, 2017 (GMT +0200)
Turany

Weather History for LKTB - August, 2013

Change the Weather History Date:

Wednesday, August 21, 2013

  Actual Average Record
Temperature  
Mean Temperature 63 °F -  
Max Temperature 71 °F 70 °F - ()
Min Temperature 55 °F 51 °F - ()
Degree Days  
Heating Degree Days 2    
Growing Degree Days 13 (Base 50)    
Moisture  
Dew Point 52 °F    
Average Humidity 67    
Maximum Humidity 82    
Minimum Humidity 39    
Precipitation  
Precipitation 0.00 in 0.06 in - ()
Sea Level Pressure  
Sea Level Pressure 30.27 in    
Wind  
Wind Speed 7 mph ()    
Max Wind Speed 12 mph    
Max Gust Speed -    
Visibility 7.0 miles    
Events      
T = Trace of Precipitation, MM = Missing Value Source: Averaged Metar Reports

Daily Weather History Graph

Daily Weather History Graph

Search for Another Location

Airport or City:

Trip Planner

Search our weather history database for the weather conditions in past years. The results will help you decide how hot, cold, wet, or windy it might be!

Date:

Astronomy

Aug. 21, 2013 Rise Set
Actual Time 5:53 AM CEST 7:57 PM CEST
Civil Twilight 5:19 AM CEST 8:32 PM CEST
Nautical Twilight 4:36 AM CEST 9:14 PM CEST
Astronomical Twilight 3:48 AM CEST 10:02 PM CEST
Moon 7:45 PM CEST (8/21) 6:20 AM CEST (8/21)
Length of Visible Light 15h 12m
Length of Day
14h 04m
Full, 100% of the Moon is Illuminated
Aug 21
Full
Aug 28
Last Quarter
Sep 5
New
Sep 12
First Quarter
Sep 19
Full

Hourly Weather History & Observations

Time (CEST) Temp. Dew Point Humidity Pressure Visibility Wind Dir Wind Speed Gust Speed Precip Events Conditions
12:00 AM 60.8 °F 53.6 °F 77% 30.30 in - NNW 6.9 mph - N/A   Clear
12:30 AM 60.8 °F 53.6 °F 77% 30.30 in - NNW 6.9 mph - N/A   Clear
1:00 AM 60.8 °F 53.6 °F 77% 30.30 in - NW 8.1 mph - N/A   Clear
1:30 AM 59.0 °F 53.6 °F 82% 30.30 in - NW 5.8 mph - N/A   Clear
2:00 AM 59 °F 53 °F 75% 30.30 in 16 mi North 4.5 mph - -   Clear
2:00 AM 59.0 °F 53.6 °F 82% 30.30 in - North 4.6 mph - N/A   Clear
2:30 AM 59.0 °F 53.6 °F 82% 30.30 in - NW 6.9 mph - N/A   Clear
3:00 AM 59.0 °F 53.6 °F 82% 30.30 in - NNW 6.9 mph - N/A   Clear
3:30 AM 57.2 °F 51.8 °F 82% 30.30 in - NNW 5.8 mph - N/A   Clear
4:00 AM 57.2 °F 51.8 °F 82% 30.30 in - NNW 9.2 mph - N/A   Clear
4:30 AM 57.2 °F 51.8 °F 82% 30.30 in - NNW 5.8 mph - N/A   Clear
5:00 AM 57.2 °F 51.8 °F 82% 30.30 in - NNW 5.8 mph - N/A   Clear
5:30 AM 55.4 °F 50.0 °F 82% 30.30 in - NNW 10.4 mph - N/A   Clear
6:00 AM 55.4 °F 50.0 °F 82% 30.30 in - NNW 11.5 mph - N/A   Clear
6:30 AM 55.4 °F 50.0 °F 82% 30.30 in - North 5.8 mph - N/A   Clear
7:00 AM 57.2 °F 51.8 °F 82% 30.30 in - NNW 6.9 mph - N/A   Clear
7:30 AM 57.2 °F 51.8 °F 82% 30.30 in 6.2 mi North 6.9 mph - N/A   Partly Cloudy
8:00 AM 59 °F 51 °F 69% 30.31 in 16 mi NNW 8.9 mph - -   Scattered Clouds
8:00 AM 59.0 °F 51.8 °F 77% 30.30 in 6.2 mi NNW 11.5 mph - N/A   Partly Cloudy
8:30 AM 60.8 °F 51.8 °F 72% 30.30 in 6.2 mi NNW 8.1 mph - N/A   Partly Cloudy
9:00 AM 60.8 °F 51.8 °F 72% 30.30 in 6.2 mi NNW 9.2 mph - N/A   Partly Cloudy
9:30 AM 62.6 °F 51.8 °F 68% 30.30 in 6.2 mi NNW 9.2 mph - N/A   Scattered Clouds
10:00 AM 62.6 °F 53.6 °F 72% 30.30 in 6.2 mi North 10.4 mph - N/A   Partly Cloudy
10:30 AM 64.4 °F 53.6 °F 68% 30.30 in 6.2 mi NW 9.2 mph - N/A   Partly Cloudy
11:00 AM 66.2 °F 51.8 °F 60% 30.30 in 6.2 mi North 6.9 mph - N/A   Mostly Cloudy
11:30 AM 66.2 °F 51.8 °F 60% 30.27 in 6.2 mi Variable 3.5 mph - N/A   Mostly Cloudy
12:00 PM 68.0 °F 53.6 °F 60% 30.27 in 6.2 mi East 6.9 mph - N/A   Mostly Cloudy
12:30 PM 68.0 °F 51.8 °F 56% 30.27 in 6.2 mi ENE 4.6 mph - N/A   Mostly Cloudy
1:00 PM 68.0 °F 51.8 °F 56% 30.27 in 6.2 mi ENE 6.9 mph - N/A   Mostly Cloudy
1:30 PM 68.0 °F 51.8 °F 56% 30.27 in 6.2 mi NNE 5.8 mph - N/A   Mostly Cloudy
2:00 PM 70 °F 50 °F 39% 30.25 in 25 mi North 6.7 mph - -   Mostly Cloudy
2:00 PM 69.8 °F 53.6 °F 56% 30.27 in 6.2 mi ENE 6.9 mph - N/A   Mostly Cloudy
2:30 PM 69.8 °F 51.8 °F 53% 30.24 in 6.2 mi North 6.9 mph - N/A   Mostly Cloudy
3:00 PM 69.8 °F 51.8 °F 53% 30.24 in 6.2 mi North 5.8 mph - N/A   Mostly Cloudy
3:30 PM 71.6 °F 53.6 °F 53% 30.24 in 6.2 mi ENE 9.2 mph - N/A   Mostly Cloudy
4:00 PM 69.8 °F 51.8 °F 53% 30.24 in 6.2 mi ENE 9.2 mph - N/A   Partly Cloudy
4:30 PM 69.8 °F 50.0 °F 49% 30.24 in 6.2 mi ENE 9.2 mph - N/A   Partly Cloudy
5:00 PM 69.8 °F 51.8 °F 53% 30.24 in 6.2 mi ENE 10.4 mph - N/A   Partly Cloudy
5:30 PM 68.0 °F 50.0 °F 52% 30.24 in 6.2 mi ENE 10.4 mph - N/A   Partly Cloudy
6:00 PM 68.0 °F 51.8 °F 56% 30.24 in 6.2 mi NE 9.2 mph - N/A   Partly Cloudy
6:30 PM 68.0 °F 51.8 °F 56% 30.24 in - ENE 6.9 mph - N/A   Clear
7:00 PM 68.0 °F 51.8 °F 56% 30.21 in 6.2 mi East 8.1 mph - N/A   Partly Cloudy
7:30 PM 68.0 °F 51.8 °F 56% 30.21 in - ENE 10.4 mph - N/A   Clear
8:00 PM 65 °F 51 °F 50% 30.22 in 25 mi NE 8.9 mph - -   Scattered Clouds
8:00 PM 64.4 °F 51.8 °F 64% 30.21 in - ENE 6.9 mph - N/A   Clear
8:30 PM 64.4 °F 51.8 °F 64% 30.21 in - NE 6.9 mph - N/A   Clear
9:00 PM 62.6 °F 51.8 °F 68% 30.24 in - ENE 5.8 mph - N/A   Clear
9:30 PM 62.6 °F 51.8 °F 68% 30.24 in - NE 6.9 mph - N/A   Clear
10:00 PM 59.0 °F 51.8 °F 77% 30.24 in 6.2 mi NE 5.8 mph - N/A   Scattered Clouds
10:30 PM 60.8 °F 51.8 °F 72% 30.21 in - NE 8.1 mph - N/A   Clear
11:00 PM 60.8 °F 51.8 °F 72% 30.21 in - NE 8.1 mph - N/A   Clear
11:30 PM 59.0 °F 50.0 °F 72% 30.21 in - NE 8.1 mph - N/A   Clear